Showing default

COSMOS 2119, 21033

Orbit data source: Space-Track

COSMOS 2119, 21033 is a payload satellite owned by UNKS (CIS) in LEO that was launched on Sat, 22 Dec 1990 UTC via a TSIKLON-3 launch vehicle from the Plesetsk Missile And Space Complex (PKMTR). Payload-class satellites include a variety of spacecraft equipped with specific instruments for various scientific and technological missions. These include communications satellites like Starlink; space stations such as the ISS; scientific satellites like the Hubble; Earth observation satellites from companies like Planet Labs, Umbra, and HawkEye 360; GPS; miniature CubeSats for education and research; and military/defense satellites.

Loading next visibility...
Identifier
21033, 1990-114F
Orbit
LEO
Last TLE update
17 hours ago
Origin
Manufacturer
NPO PM
Mission
Defense Communications
Bus & Motor
STRELA-3, Unknown motor
Mass
225 kg wet, 225 kg dry
Launch date (UTC)
1990-12-22 (35 years ago)
Launch vehicle
TSIKLON-3
Launch site
Plesetsk Missile And Space Complex (PKMTR)
Object type
Payload
Rocket body
Debris
Shape & HBR
Cyl, 1.6 m
Radar Cross Section
1.257 m², Large (>1 m²)

Expand to show TLE details & history

TLE from 17 hours ago
0 COSMOS 2119
1 21033U 90114F   25191.67980831  .00000034  00000-0  12105-3 0  9993
2 21033  82.5721  33.6213 0014885  35.9914  31.9503 12.66361717596800
Epoch: 2025-07-10T16:18Z
TLE epoch observation values (Epoch: 2025-07-10T16:18:55.437Z)
Latitude
66.94666°
Longitude
-122.20444°
Altitude
1,398.533 km
Speed
7.171 km/s
True Right ascension
03h 25m 28s
True Declination
66° 49' 58"
Sunlit
Object was in daylight at epoch
Visualization orbit readout
Latitude
8.09481°
Longitude
-139.34405°
Altitude
1,388.458 km
Speed
7.171 km/s
Apparent Right ascension
04h 43m 29s
Apparent Declination
-20° 43' 46"
Sunlit
Object is in daylight
Visualization observer readout
Local Sidereal Time
21:21:38
Azimuth
94.026° ESE
Elevation
-28.549°
Doppler factor
1
Orbital elements
Apogee altitude
1,405.68 km
Perigee altitude
1,382.542 km
Semi-major axis
7,772.248 km
Eccentricity
0.00149
Inclination
82.5721°
RAAN
33.6213°
Arg. of periapsis
35.9914°
True anomaly
Unknown
Mean anomaly
31.9503°
Eccentric anomaly
Unknown
Mean motion
3.16755 °/min
Orbital period
113.65 mins
BSTAR
0.00012105
Loading maneuver chart data...
Loading SW <> Apogee altitude chart data...
Loading historical data...
Loading historical data...
Loading historical data...
Loading historical data...
Loading historical data...
Loading historical data...
Loading historical data...

COSMOS 2119 Visibility forecast

Observer location: undefined°, undefined°

Span
Click to sort rows by Start time (UTC) header in descending order
Start Az.
Max El. time (UTC)
Max El. Az.
Max El.
End time (UTC)
End Az.
13 mins2025-07-11 12:54:59.589Z139.443° SSE2025-07-11 13:01:59.589Z79.467° E26.248°2025-07-11 13:07:59.589Z29.62° NE
14 mins2025-07-11 14:48:59.589Z208.783° SW2025-07-11 14:55:59.589Z287.888° WNW39.122°2025-07-11 15:02:59.589Z357.388° N
15 mins2025-07-12 00:47:59.589Z0.68° NNE2025-07-12 00:54:59.589Z68.399° E40.882°2025-07-12 01:02:59.589Z157.226° SSE
11 mins2025-07-12 02:43:59.589Z324.155° NNW2025-07-12 02:48:59.589Z281.12° WNW24.306°2025-07-12 02:54:59.589Z228.674° WSW
|